Location: Benalto
(52.3088°N, 114.2787°W)
Time: 12:38:57
(UTC+00:00)

N. Korean satellite - Pass Details

Date: 01 December 2021
Orbit: 447 x 490 km, 97.3° (Epoch: 27 January)

Event Time Altitude Azimuth Distance (km) Brightness Sun altitude
Rises 12:30:14 0° 20° (NNE) 2,482 10.4 -25.6°
Reaches altitude 10° 12:32:25 10° 30° (NNE) 1,597 9.5 -25.3°
Maximum altitude 12:35:34 34° 97° (E) 765 8.1 -24.8°
Drops below altitude 10° 12:38:40 10° 164° (SSE) 1,574 9.4 -24.3°
Sets 12:40:48 0° 174° (S) 2,439 10.3 -24.0°
